Terminal Aerodrome Forecast
Issued by NWS Pueblo, CO

Home | Current Version | Previous Version | Text Only | Print | Product List | Glossary On
Versions: 1 2 3 4 5 6 7 8 9 10 11 12 13 14 15 16 17 18 19 20 21 22 23 24 25 26 27 28 29 30 31 32 33 34 35 36 37 38 39 40 41 42 43 44 45 46 47 48
000
FTUS45 KPUB 230212 AAB
TAFPUB
TAF AMD
KPUB 230212Z 2302/2324 07011KT P6SM VCTS SCT080CB BKN150
     FM230500 09006KT P6SM SCT100 BKN150
     FM230900 04007KT P6SM OVC025
     FM231300 06010KT P6SM -SHRA OVC020
     FM231400 07015G25KT 4SM -SHRA BR OVC010
     FM231800 09011KT P6SM OVC025=

USA.gov is the U.S. government's official web portal to all federal, state and local government web resources and services.